Andalusia, AL

6:26 AM CDT on September 28, 2016 (GMT -0500)
Andalusia

Weather History for K79J - December, 2012

Change the Weather History Date:

Tuesday, December 4, 2012

  Actual Average (KCEW) Record (KCEW)
Temperature  
Mean Temperature 64 °F -  
Max Temperature 79 °F 67 °F 79 °F (2005)
Min Temperature 48 °F 39 °F 22 °F (1989)
Degree Days  
Heating Degree Days 2    
Growing Degree Days 14 (Base 50)    
Moisture  
Dew Point 50 °F    
Average Humidity 81    
Maximum Humidity 90    
Minimum Humidity 39    
Precipitation  
Precipitation 0.01 in - - ()
Sea Level Pressure  
Sea Level Pressure 30.23 in    
Wind  
Wind Speed 1 mph (SE)    
Max Wind Speed 8 mph    
Max Gust Speed -    
Visibility 4 miles    
Events Fog , Rain    
Averages and records for this station are not official NWS values.
T = Trace of Precipitation, MM = Missing Value Source: NWS Daily Summary

Daily Weather History Graph

Daily Weather History Graph

Search for Another Location

Airport or City:

Trip Planner

Search our weather history database for the weather conditions in past years. The results will help you decide how hot, cold, wet, or windy it might be!

Date:

Astronomy

Dec. 04, 2012 Rise Set
Actual Time 6:29 AM CST 4:42 PM CST
Civil Twilight 6:02 AM CST 5:09 PM CST
Nautical Twilight 5:32 AM CST 5:39 PM CST
Astronomical Twilight 5:03 AM CST 6:08 PM CST
Moon 10:14 PM CST (12/4) 10:36 AM CST (12/4)
Length of Visible Light 11h 06m
Length of Day
10h 12m
Waning Gibbous, 69% of the Moon is Illuminated
Dec 4
Waning Gibbous
Dec 6
Last Quarter
Dec 13
New
Dec 19
First Quarter
Dec 28
Full

Hourly Weather History & Observations

Time (CST) Temp. Dew Point Humidity Pressure Visibility Wind Dir Wind Speed Gust Speed Precip Events Conditions
12:56 AM 51.1 °F 46.9 °F 86% 30.21 in 8.0 mi SSE 3.5 mph - N/A   Partly Cloudy
1:19 AM 53.6 °F 50.0 °F 88% 30.22 in 1.8 mi Calm Calm - N/A   Partly Cloudy
1:25 AM 50.0 °F 46.4 °F 87% 30.22 in 1.0 mi Calm Calm - N/A   Mist
1:33 AM 51.8 °F 46.4 °F 82% 30.22 in 0.8 mi Calm Calm - N/A   Mist
1:45 AM 51.8 °F 48.2 °F 88% 30.22 in 1.2 mi Calm Calm - N/A   Overcast
1:47 AM 51.8 °F 48.2 °F 88% 30.22 in 2.0 mi Calm Calm - N/A   Overcast
1:56 AM 52.0 °F 48.0 °F 86% 30.22 in 1.8 mi Calm Calm - N/A   Overcast
2:02 AM 51.8 °F 46.4 °F 82% 30.23 in 0.8 mi Calm Calm - N/A   Mist
2:12 AM 50.0 °F 46.4 °F 87% 30.22 in 0.2 mi Calm Calm - N/A Fog Fog
2:46 AM 50.0 °F 46.4 °F 87% 30.22 in 0.5 mi East 3.5 mph - N/A Fog Fog
2:56 AM 50.0 °F 46.0 °F 86% 30.21 in 0.8 mi Calm Calm - N/A   Mist
3:12 AM 50.0 °F 46.4 °F 87% 30.22 in 1.2 mi Calm Calm - N/A   Overcast
3:15 AM 50.0 °F 46.4 °F 87% 30.22 in 2.5 mi Calm Calm - N/A   Mostly Cloudy
3:22 AM 51.8 °F 46.4 °F 82% 30.22 in 4.0 mi Calm Calm - N/A   Mostly Cloudy
3:25 AM 51.8 °F 46.4 °F 82% 30.22 in 1.5 mi Calm Calm - N/A   Mostly Cloudy
3:32 AM 50.0 °F 46.4 °F 87% 30.23 in 1.2 mi Calm Calm - N/A   Mostly Cloudy
3:36 AM 51.8 °F 46.4 °F 82% 30.22 in 2.0 mi Calm Calm - N/A   Overcast
3:49 AM 50.0 °F 46.4 °F 87% 30.23 in 1.2 mi Calm Calm - N/A   Overcast
3:51 AM 50.0 °F 46.4 °F 87% 30.22 in 0.8 mi Calm Calm - N/A   Mist
3:56 AM 50.0 °F 46.0 °F 86% 30.22 in 0.5 mi Calm Calm - N/A Fog Fog
4:04 AM 50.0 °F 46.4 °F 87% 30.23 in 1.8 mi Calm Calm - N/A   Overcast
4:06 AM 50.0 °F 46.4 °F 87% 30.23 in 3.0 mi Calm Calm - N/A   Overcast
4:13 AM 48.2 °F 44.6 °F 87% 30.23 in 2.0 mi Calm Calm - N/A   Overcast
4:21 AM 50.0 °F 46.4 °F 87% 30.23 in 6.0 mi Calm Calm - N/A   Mostly Cloudy
4:38 AM 51.8 °F 46.4 °F 82% 30.23 in 2.0 mi Calm Calm - N/A   Haze
4:41 AM 50.0 °F 46.4 °F 87% 30.23 in 1.2 mi Calm Calm - N/A   Mostly Cloudy
4:49 AM 50.0 °F 46.4 °F 87% 30.23 in 2.0 mi Calm Calm - N/A   Mostly Cloudy
4:56 AM 50.0 °F 46.0 °F 86% 30.23 in 0.8 mi Calm Calm - N/A   Mist
5:06 AM 50.0 °F 46.4 °F 87% 30.24 in 0.2 mi SE 3.5 mph - N/A Fog Fog
5:13 AM 50.0 °F 46.4 °F 87% 30.24 in 0.8 mi Calm Calm - N/A   Mist
5:21 AM 50.0 °F 46.4 °F 87% 30.24 in 1.2 mi Calm Calm - N/A   Mostly Cloudy
5:28 AM 50.0 °F 44.6 °F 82% 30.24 in 2.0 mi Calm Calm - N/A   Haze
5:37 AM 50.0 °F 46.4 °F 87% 30.25 in 4.0 mi Calm Calm - N/A   Mostly Cloudy
5:43 AM 50.0 °F 46.4 °F 87% 30.25 in 1.8 mi Calm Calm - N/A   Mostly Cloudy
5:53 AM 50.0 °F 46.4 °F 87% 30.26 in 3.0 mi East 3.5 mph - N/A   Overcast
5:56 AM 48.9 °F 46.0 °F 90% 30.25 in 2.5 mi East 3.5 mph - N/A   Overcast
5:58 AM 50.0 °F 46.4 °F 87% 30.26 in 1.0 mi ESE 3.5 mph - N/A   Mist
6:02 AM 51.8 °F 46.4 °F 82% 30.26 in 0.2 mi ESE 3.5 mph - N/A Fog Fog
6:17 AM 51.8 °F 48.2 °F 88% 30.26 in 0.2 mi ESE 3.5 mph - 0.00 in Fog , Rain Light Rain
6:28 AM 53.6 °F 48.2 °F 82% 30.26 in 0.2 mi SE 3.5 mph - 0.00 in Fog , Rain Light Rain
6:56 AM 53.1 °F 50.0 °F 89% 30.27 in 0.2 mi ESE 3.5 mph - 0.01 in Fog , Rain Light Rain
7:56 AM 57.0 °F 53.1 °F 87% 30.27 in 0.2 mi SE 4.6 mph - 0.00 in Fog , Rain Light Rain
8:09 AM 57.2 °F 53.6 °F 88% 30.28 in 1.0 mi SE 4.6 mph - 0.00 in Rain Light Rain
8:11 AM 57.2 °F 53.6 °F 88% 30.28 in 1.5 mi SE 4.6 mph - 0.00 in Rain Light Rain
8:17 AM 59.0 °F 55.4 °F 88% 30.28 in 3.0 mi SE 3.5 mph - 0.00 in Rain Light Rain
8:34 AM 60.8 °F 57.2 °F 88% 30.29 in 8.0 mi SSE 4.6 mph - 0.00 in   Scattered Clouds
8:56 AM 63.0 °F 59.0 °F 87% 30.29 in 10.0 mi Variable 4.6 mph - 0.00 in   Clear
9:56 AM 71.1 °F 61.0 °F 70% 30.29 in 10.0 mi SW 5.8 mph - N/A   Clear
10:56 AM 75.0 °F 60.1 °F 60% 30.26 in 10.0 mi South 8.1 mph - N/A   Clear
11:56 AM 79.0 °F 57.0 °F 47% 30.24 in 10.0 mi Variable 4.6 mph - N/A   Scattered Clouds
12:56 PM 77.0 °F 55.9 °F 48% 30.22 in 10.0 mi Calm Calm - N/A   Mostly Cloudy
1:56 PM 79.0 °F 52.0 °F 39% 30.20 in 10.0 mi South 6.9 mph - N/A   Partly Cloudy
2:56 PM 79.0 °F 54.0 °F 42% 30.19 in 10.0 mi SSE 3.5 mph - N/A   Partly Cloudy
3:56 PM 75.9 °F 54.0 °F 46% 30.20 in 10.0 mi SW 8.1 mph - N/A   Overcast
4:56 PM 72.0 °F 55.0 °F 55% 30.19 in 10.0 mi SSW 3.5 mph - N/A   Clear
5:56 PM 66.0 °F 55.9 °F 70% 30.20 in 10.0 mi Calm Calm - N/A   Clear
6:56 PM 64.0 °F 55.9 °F 75% 30.21 in 10.0 mi Calm Calm - N/A   Clear
7:56 PM 64.0 °F 55.9 °F 75% 30.22 in 10.0 mi Calm Calm - N/A   Clear
8:56 PM 62.1 °F 57.0 °F 84% 30.21 in 10.0 mi Calm Calm - N/A   Clear
9:56 PM 60.1 °F 55.0 °F 83% 30.21 in 8.0 mi Calm Calm - N/A   Clear
10:56 PM 57.9 °F 54.0 °F 87% 30.20 in 8.0 mi Calm Calm - N/A   Clear
11:42 PM 55.4 °F 51.8 °F 88% 30.19 in 4.0 mi ESE 3.5 mph - N/A   Partly Cloudy
11:56 PM 57.0 °F 53.1 °F 87% 30.18 in 6.0 mi Calm Calm - N/A   Partly Cloudy